• In Slovakia
  • List of Countries
  • For 7 days
  • Water Temperature
  • Satellite Maps
  • Weather Map
  • Weather Widgets
  • user-avatar
    Login

    Hourly Weather Marbella

    Today, 21 November, Tuesday

    Time Temperature Precipitation Wind Pressure Humidity
    00:00 +16°C° 0 mm 2 mps 760 mmHg 42%
    01:00 +16°C° 0 mm 2 mps 760 mmHg 42%
    02:00 +15°C° 0 mm 2 mps 760 mmHg 41%
    03:00 +15°C° 0 mm 2 mps 760 mmHg 40%
    04:00 +15°C° 0 mm 2 mps 760 mmHg 40%
    05:00 +15°C° 0 mm 2 mps 760 mmHg 40%
    06:00 +15°C° 0 mm 2 mps 760 mmHg 41%
    07:00 +16°C° 0 mm 2 mps 760 mmHg 39%
    08:00 +17°C° 0 mm 2 mps 760 mmHg 38%
    09:00 +18°C° 0 mm 2 mps 760 mmHg 37%
    10:00 +20°C° 0 mm 2 mps 760 mmHg 34%
    11:00 +23°C° 0 mm 2 mps 760 mmHg 31%
    12:00 +25°C° 0 mm 2 mps 760 mmHg 27%
    13:00 +25°C° 0 mm 2 mps 759 mmHg 28%
    14:00 +24°C° 0 mm 2 mps 759 mmHg 29%
    15:00 +24°C° 0 mm 2 mps 758 mmHg 30%
    16:00 +22°C° 0 mm 1 mps 758 mmHg 36%
    17:00 +20°C° 0 mm 1 mps 758 mmHg 42%
    18:00 +18°C° 0 mm 1 mps 758 mmHg 48%
    19:00 +18°C° 0 mm 1 mps 758 mmHg 48%
    20:00 +18°C° 0 mm 1 mps 758 mmHg 48%
    21:00 +16°C° 0 mm 1 mps 758 mmHg 48%
    22:00 +16°C° 0 mm 1 mps 758 mmHg 47%
    23:00 +16°C° 0 mm 1 mps 758 mmHg 47%

    Tomorrow, 22 November, Wednesday

    Time Temperature Precipitation Wind Pressure Humidity
    00:00 +15°C° 0 mm 1 mps 758 mmHg 46%
    01:00 +15°C° 0 mm 2 mps 758 mmHg 45%
    02:00 +15°C° 0 mm 2 mps 757 mmHg 44%
    03:00 +15°C° 0 mm 2 mps 757 mmHg 43%
    04:00 +15°C° 0 mm 2 mps 757 mmHg 42%
    05:00 +14°C° 0 mm 2 mps 757 mmHg 41%
    06:00 +14°C° 0 mm 2 mps 756 mmHg 39%
    07:00 +15°C° 0 mm 1 mps 757 mmHg 38%
    08:00 +18°C° 0 mm 1 mps 757 mmHg 36%
    09:00 +19°C° 0 mm 1 mps 757 mmHg 34%
    10:00 +21°C° 0 mm 1 mps 757 mmHg 31%
    11:00 +22°C° 0 mm 1 mps 757 mmHg 29%
    12:00 +24°C° 0 mm 1 mps 757 mmHg 26%
    13:00 +24°C° 0 mm 1 mps 756 mmHg 27%
    14:00 +24°C° 0 mm 1 mps 756 mmHg 28%
    15:00 +24°C° 0 mm 1 mps 756 mmHg 30%
    16:00 +22°C° 0 mm 1 mps 756 mmHg 36%
    17:00 +20°C° 0 mm 1 mps 756 mmHg 42%
    18:00 +18°C° 0 mm 1 mps 756 mmHg 49%
    19:00 +18°C° 0 mm 1 mps 756 mmHg 49%
    20:00 +18°C° 0 mm 1 mps 757 mmHg 49%
    21:00 +16°C° 0 mm 1 mps 757 mmHg 48%
    22:00 +16°C° 0 mm 1 mps 757 mmHg 47%
    23:00 +16°C° 0 mm 1 mps 757 mmHg 46%

    Day after tomorrow, 23 November, Thursday

    Time Temperature Precipitation Wind Pressure Humidity
    00:00 +16°C° 0 mm 1 mps 757 mmHg 45%
    01:00 +16°C° 0 mm 1 mps 757 mmHg 44%
    02:00 +16°C° 0 mm 1 mps 757 mmHg 42%
    03:00 +16°C° 0 mm 1 mps 757 mmHg 41%
    04:00 +16°C° 0 mm 1 mps 757 mmHg 41%
    05:00 +16°C° 0 mm 1 mps 757 mmHg 41%
    06:00 +16°C° 0 mm 1 mps 757 mmHg 41%
    07:00 +18°C° 0 mm 1 mps 757 mmHg 40%
    08:00 +19°C° 0 mm 1 mps 758 mmHg 38%
    09:00 +20°C° 0 mm 1 mps 758 mmHg 37%
    10:00 +22°C° 0 mm 1 mps 758 mmHg 34%
    11:00 +24°C° 0 mm 1 mps 758 mmHg 30%
    12:00 +25°C° 0 mm 1 mps 758 mmHg 27%
    13:00 +25°C° 0 mm 2 mps 758 mmHg 28%
    14:00 +25°C° 0 mm 2 mps 757 mmHg 28%
    15:00 +25°C° 0 mm 2 mps 757 mmHg 29%
    16:00 +23°C° 0 mm 2 mps 757 mmHg 33%
    17:00 +20°C° 0 mm 2 mps 757 mmHg 37%
    18:00 +18°C° 0 mm 2 mps 757 mmHg 42%
    19:00 +18°C° 0 mm 2 mps 758 mmHg 42%
    20:00 +17°C° 0 mm 2 mps 758 mmHg 42%
    21:00 +17°C° 0 mm 2 mps 758 mmHg 42%
    22:00 +17°C° 0 mm 2 mps 758 mmHg 41%
    23:00 +17°C° 0 mm 2 mps 758 mmHg 40%

    24 November, Friday

    Time Temperature Precipitation Wind Pressure Humidity
    00:00 +16°C° 0 mm 2 mps 758 mmHg 39%
    01:00 +16°C° 0 mm 2 mps 758 mmHg 38%
    02:00 +16°C° 0 mm 2 mps 758 mmHg 38%
    03:00 +16°C° 0 mm 2 mps 758 mmHg 37%
    04:00 +16°C° 0 mm 2 mps 758 mmHg 37%
    05:00 +16°C° 0 mm 2 mps 758 mmHg 37%
    06:00 +16°C° 0 mm 2 mps 758 mmHg 37%
    07:00 +17°C° 0 mm 2 mps 758 mmHg 36%
    08:00 +18°C° 0 mm 2 mps 758 mmHg 35%
    09:00 +19°C° 0 mm 2 mps 759 mmHg 34%
    10:00 +21°C° 0 mm 2 mps 759 mmHg 31%
    11:00 +24°C° 0 mm 2 mps 758 mmHg 28%
    12:00 +25°C° 0 mm 2 mps 758 mmHg 25%
    13:00 +25°C° 0 mm 2 mps 758 mmHg 25%
    14:00 +25°C° 0 mm 2 mps 758 mmHg 26%
    15:00 +25°C° 0 mm 2 mps 757 mmHg 26%
    16:00 +23°C° 0 mm 2 mps 757 mmHg 31%
    17:00 +20°C° 0 mm 2 mps 757 mmHg 36%
    18:00 +18°C° 0 mm 2 mps 757 mmHg 41%
    19:00 +18°C° 0 mm 2 mps 758 mmHg 40%
    20:00 +18°C° 0 mm 2 mps 758 mmHg 39%
    21:00 +18°C° 0 mm 2 mps 758 mmHg 39%
    22:00 +18°C° 0 mm 2 mps 758 mmHg 37%
    23:00 +18°C° 0 mm 2 mps 758 mmHg 35%

    25 November, Saturday

    Time Temperature Precipitation Wind Pressure Humidity
    00:00 +18°C° 0 mm 2 mps 758 mmHg 33%
    01:00 +18°C° 0 mm 2 mps 757 mmHg 31%
    02:00 +18°C° 0 mm 2 mps 757 mmHg 30%
    03:00 +18°C° 0 mm 2 mps 757 mmHg 28%
    04:00 +18°C° 0 mm 2 mps 757 mmHg 28%
    05:00 +18°C° 0 mm 2 mps 757 mmHg 27%
    06:00 +18°C° 0 mm 2 mps 757 mmHg 27%
    07:00 +19°C° 0 mm 2 mps 757 mmHg 27%
    08:00 +20°C° 0 mm 2 mps 758 mmHg 27%
    09:00 +20°C° 0 mm 2 mps 758 mmHg 26%
    10:00 +21°C° 0 mm 2 mps 758 mmHg 25%
    11:00 +23°C° 0 mm 2 mps 758 mmHg 25%
    12:00 +25°C° 0 mm 2 mps 758 mmHg 24%
    13:00 +24°C° 0 mm 2 mps 757 mmHg 25%
    14:00 +24°C° 0 mm 2 mps 757 mmHg 26%
    15:00 +24°C° 0 mm 1 mps 757 mmHg 27%
    16:00 +23°C° 0 mm 1 mps 757 mmHg 28%
    17:00 +22°C° 0 mm 1 mps 758 mmHg 30%
    18:00 +21°C° 0 mm 1 mps 758 mmHg 31%
    19:00 +20°C° 0 mm 2 mps 758 mmHg 34%
    20:00 +19°C° 0 mm 2 mps 759 mmHg 36%
    21:00 +19°C° 0 mm 2 mps 759 mmHg 39%
    22:00 +20°C° 0 mm 1 mps 759 mmHg 43%
    23:00 +20°C° 0 mm 1 mps 759 mmHg 47%

    26 November, Sunday

    Time Temperature Precipitation Wind Pressure Humidity
    00:00 +19°C° 0 mm 1 mps 759 mmHg 51%
    01:00 +19°C° 0.1 mm 1 mps 759 mmHg 55%
    02:00 +18°C° 0.1 mm 2 mps 759 mmHg 59%
    03:00 +18°C° 0.1 mm 2 mps 760 mmHg 63%
    04:00 +18°C° 0.1 mm 2 mps 760 mmHg 65%
    05:00 +18°C° 0.1 mm 2 mps 760 mmHg 66%
    06:00 +17°C° 0.1 mm 2 mps 760 mmHg 68%
    07:00 +18°C° 0 mm 2 mps 760 mmHg 64%
    08:00 +20°C° 0 mm 1 mps 760 mmHg 61%
    09:00 +21°C° 0 mm 1 mps 761 mmHg 57%
    10:00 +22°C° 0 mm 1 mps 761 mmHg 50%
    11:00 +24°C° 0 mm 1 mps 761 mmHg 43%
    12:00 +25°C° 0 mm 1 mps 761 mmHg 36%
    13:00 +25°C° 0 mm 1 mps 760 mmHg 35%
    14:00 +25°C° 0 mm 1 mps 760 mmHg 35%
    15:00 +25°C° 0 mm 2 mps 760 mmHg 34%
    16:00 +23°C° 0 mm 1 mps 761 mmHg 38%
    17:00 +22°C° 0 mm 1 mps 761 mmHg 43%
    18:00 +20°C° 0 mm 1 mps 761 mmHg 47%
    19:00 +20°C° 0 mm 1 mps 762 mmHg 47%
    20:00 +18°C° 0 mm 2 mps 762 mmHg 46%
    21:00 +18°C° 0 mm 2 mps 762 mmHg 46%
    22:00 +18°C° 0 mm 2 mps 762 mmHg 44%
    23:00 +17°C° 0 mm 2 mps 762 mmHg 43%
    Show more